Waukesha, WI

10:10 AM CDT on May 24, 2017 (GMT -0500)
Waukesha County

Weather History for KUES - November, 2013

Change the Weather History Date:

Wednesday, November 13, 2013

  Actual Average Record
Temperature  
Mean Temperature 27 °F -  
Max Temperature 39 °F 42 °F 68 °F (1999)
Min Temperature 15 °F 28 °F 2 °F (1986)
Degree Days  
Heating Degree Days 38    
Moisture  
Dew Point 14 °F    
Average Humidity 61    
Maximum Humidity 86    
Minimum Humidity 33    
Precipitation  
Precipitation 0.00 in - - ()
Sea Level Pressure  
Sea Level Pressure 30.30 in    
Wind  
Wind Speed 11 mph (SW)    
Max Wind Speed 21 mph    
Max Gust Speed 31 mph    
Visibility 10 miles    
Events      
Averages and records for this station are not official NWS values.
T = Trace of Precipitation, MM = Missing Value Source: NWS Daily Summary

Daily Weather History Graph

Daily Weather History Graph

Search for Another Location

Airport or City:

Trip Planner

Search our weather history database for the weather conditions in past years. The results will help you decide how hot, cold, wet, or windy it might be!

Date:

Astronomy

Nov. 13, 2013 Rise Set
Actual Time 6:43 AM CST 4:30 PM CST
Civil Twilight 6:12 AM CST 5:01 PM CST
Nautical Twilight 5:38 AM CST 5:35 PM CST
Astronomical Twilight 5:05 AM CST 6:09 PM CST
Moon 2:23 PM CST (11/13) 2:30 AM CST (11/13)
Length of Visible Light 10h 48m
Length of Day
9h 47m
Waxing Gibbous, 85% of the Moon is Illuminated
Nov 13
Waxing Gibbous
Nov 17
Full
Nov 25
Last Quarter
Dec 2
New
Dec 9
First Quarter

Hourly Weather History & Observations

Time (CST) Temp. Windchill Dew Point Humidity Pressure Visibility Wind Dir Wind Speed Gust Speed Precip Events Conditions
12:15 AM 19.4 °F 8.6 °F 14.0 °F 80% 30.54 in 10.0 mi WSW 9.2 mph - N/A   Clear
12:35 AM 19.4 °F 10.4 °F 14.0 °F 80% 30.53 in 10.0 mi WSW 6.9 mph - N/A   Clear
12:55 AM 19.4 °F 10.4 °F 14.0 °F 80% 30.52 in 10.0 mi WSW 6.9 mph - N/A   Clear
1:15 AM 19.4 °F 9.5 °F 14.0 °F 80% 30.52 in 10.0 mi WSW 8.1 mph - N/A   Clear
1:35 AM 19.4 °F 10.4 °F 14.0 °F 80% 30.52 in 10.0 mi WSW 6.9 mph - N/A   Clear
1:55 AM 19.4 °F 9.5 °F 14.0 °F 80% 30.52 in 10.0 mi WSW 8.1 mph - N/A   Clear
2:15 AM 17.6 °F 8.2 °F 14.0 °F 86% 30.52 in 10.0 mi WSW 6.9 mph - N/A   Clear
2:35 AM 17.6 °F 7.3 °F 14.0 °F 86% 30.51 in 10.0 mi WSW 8.1 mph - N/A   Clear
2:55 AM 19.4 °F 9.5 °F 12.2 °F 74% 30.51 in 10.0 mi WSW 8.1 mph - N/A   Clear
3:15 AM 19.4 °F 10.4 °F 12.2 °F 74% 30.50 in 10.0 mi WSW 6.9 mph - N/A   Clear
3:35 AM 19.4 °F 10.4 °F 12.2 °F 74% 30.50 in 10.0 mi WSW 6.9 mph - N/A   Clear
3:55 AM 17.6 °F 6.4 °F 12.2 °F 79% 30.49 in 10.0 mi WSW 9.2 mph - N/A   Clear
4:15 AM 17.6 °F 8.2 °F 12.2 °F 79% 30.48 in 10.0 mi WSW 6.9 mph - N/A   Clear
4:35 AM 17.6 °F 7.3 °F 12.2 °F 79% 30.48 in 10.0 mi WSW 8.1 mph - N/A   Clear
5:45 AM 15.8 °F 7.2 °F 12.2 °F 86% 30.46 in 10.0 mi WSW 5.8 mph - N/A   Clear
6:45 AM 17.6 °F 8.2 °F 12.2 °F 79% 30.45 in 10.0 mi SW 6.9 mph - N/A   Clear
7:45 AM 19.4 °F 10.4 °F 12.2 °F 74% 30.45 in 10.0 mi SW 6.9 mph - N/A   Clear
8:45 AM 24.8 °F 14.0 °F 14.0 °F 64% 30.41 in 10.0 mi SW 11.5 mph 23.0 mph N/A   Clear
9:45 AM 30.2 °F 20.8 °F 14.0 °F 51% 30.38 in 10.0 mi SW 11.5 mph 23.0 mph N/A   Scattered Clouds
10:45 AM 33.8 °F 25.3 °F 12.2 °F 41% 30.34 in 10.0 mi SSW 11.5 mph 23.0 mph N/A   Scattered Clouds
11:45 AM 35.6 °F 25.9 °F 12.2 °F 38% 30.31 in 10.0 mi SW 16.1 mph 23.0 mph N/A   Scattered Clouds
12:45 PM 37.4 °F 28.9 °F 10.4 °F 33% 30.26 in 10.0 mi SW 13.8 mph 25.3 mph N/A   Partly Cloudy
1:45 PM 37.4 °F 27.5 °F 12.2 °F 36% 30.23 in 10.0 mi SW 18.4 mph 31.1 mph N/A   Partly Cloudy
2:45 PM 39.2 °F 30.5 °F 12.2 °F 33% 30.20 in 10.0 mi SW 16.1 mph 27.6 mph N/A   Clear
3:45 PM 37.4 °F 26.9 °F 12.2 °F 36% 30.16 in 10.0 mi SW 20.7 mph 28.8 mph N/A   Clear
4:45 PM 35.6 °F 25.2 °F 15.8 °F 44% 30.15 in 10.0 mi SSW 18.4 mph 26.5 mph N/A   Clear
5:45 PM 33.8 °F 23.5 °F 17.6 °F 52% 30.14 in 10.0 mi SW 16.1 mph 26.5 mph N/A   Clear
6:45 PM 33.8 °F 24.3 °F 17.6 °F 52% 30.12 in 10.0 mi SW 13.8 mph 24.2 mph N/A   Clear
7:45 PM 33.8 °F 23.9 °F 17.6 °F 52% 30.10 in 10.0 mi SW 15.0 mph 25.3 mph N/A   Clear
8:15 PM 32.0 °F 20.5 °F 17.6 °F 55% 30.10 in 10.0 mi SW 18.4 mph 28.8 mph N/A   Clear
8:35 PM 32.0 °F 20.1 °F 17.6 °F 55% 30.09 in 10.0 mi SW 19.6 mph 25.3 mph N/A   Clear
8:45 PM 33.8 °F 22.8 °F 15.8 °F 48% 30.09 in 10.0 mi SW 18.4 mph 26.5 mph N/A   Clear
8:55 PM 32.0 °F 21.2 °F 15.8 °F 51% 30.09 in 10.0 mi SW 16.1 mph 25.3 mph N/A   Clear
9:15 PM 32.0 °F 20.8 °F 15.8 °F 51% 30.10 in 10.0 mi SW 17.3 mph 26.5 mph N/A   Clear
9:35 PM 32.0 °F 21.6 °F 15.8 °F 51% 30.09 in 10.0 mi SW 15.0 mph 25.3 mph N/A   Clear
9:55 PM 33.8 °F 23.9 °F 15.8 °F 48% 30.09 in 10.0 mi SW 15.0 mph 21.9 mph N/A   Clear
10:15 PM 33.8 °F 23.9 °F 15.8 °F 48% 30.08 in 10.0 mi SW 15.0 mph 20.7 mph N/A   Clear
10:35 PM 32.0 °F 21.2 °F 15.8 °F 51% 30.08 in 10.0 mi SW 16.1 mph 23.0 mph N/A   Clear
10:55 PM 32.0 °F 22.5 °F 15.8 °F 51% 30.08 in 10.0 mi SW 12.7 mph 21.9 mph N/A   Clear
11:15 PM 32.0 °F 22.5 °F 15.8 °F 51% 30.08 in 10.0 mi SW 12.7 mph 18.4 mph N/A   Clear
11:35 PM 32.0 °F 23.6 °F 15.8 °F 51% 30.07 in 10.0 mi SW 10.4 mph 19.6 mph N/A   Clear
11:55 PM 32.0 °F 22.1 °F 15.8 °F 51% 30.07 in 10.0 mi SW 13.8 mph 24.2 mph N/A   Clear